Date String (YYYY-MM-DD hh:mm:ss) UTC,Instrument flags,absolute air pressure of the measurement (hPa),sample flow rate (lpm),inlet stack bypass flow (lpm),air temperature of the measurement (°C),ambient temperature measured by the external sensor (°C),aerosol sample conditioner tube jacket temperature (°C),OPC LED temperature (°C),internal box temperature (°C),relative humidity of the measurement (%),span deviation,mass concentration of particles derived from Lorenz-Mie calculation of OPC scattering (μg/m³),mass concentration of particles derived from Lorenz-Mie calculation of OPC scattering (μg/m³),mass concentration of particles derived from Lorenz-Mie calculation of OPC scattering (μg/m³)
DateTimeUTC,F1_M11,P_M11,Q1_M11,Q2_M11,T1_M11,T2_M11,T3_M11,T4_M11,T5_M11,U1_M11,ZSPAN_M11,X0_M11,X2_M11,X1_M11
2024-03-01 00:00:00,SystemResetWarning,0823.5,5.00,000.00,025.6,024.8,000.0,033.9,027.4,05.5,0000.0,0006.83,0002.95,0001.79
2024-03-01 00:01:00,SystemResetWarning,0823.5,4.99,000.00,025.6,024.8,000.0,033.9,027.4,05.5,0000.0,0006.82,0002.87,0001.75
2024-03-01 00:02:00,SystemResetWarning,0823.5,5.00,000.00,025.6,024.7,000.0,033.9,027.4,05.5,0000.0,0006.56,0002.81,0001.73
2024-03-01 00:03:00,SystemResetWarning,0823.5,5.00,000.00,025.6,024.7,000.0,033.9,027.3,05.5,0000.0,0005.54,0002.70,0001.70
2024-03-01 00:04:00,SystemResetWarning,0823.4,5.01,000.00,025.6,024.7,000.0,033.9,027.4,05.5,0000.0,0005.30,0002.60,0001.66
2024-03-01 00:05:00,SystemResetWarning,0823.5,5.00,000.00,025.6,024.7,000.0,033.9,027.4,05.6,0000.0,0005.23,0002.54,0001.64
2024-03-01 00:06:00,SystemResetWarning,0823.5,5.00,000.00,025.6,024.7,000.0,033.9,027.4,05.6,0000.0,0005.64,0002.60,0001.62
2024-03-01 00:07:00,SystemResetWarning,0823.6,4.99,000.00,025.6,024.7,000.0,034.0,027.4,05.5,0000.0,0005.77,0002.67,0001.64
2024-03-01 00:08:00,SystemResetWarning,0823.6,4.99,000.00,025.6,024.7,000.0,033.9,027.4,05.6,0000.0,0006.94,0002.68,0001.63
2024-03-01 00:09:00,SystemResetWarning,0823.6,5.00,000.00,025.6,024.7,000.0,033.9,027.4,05.5,0000.0,0006.92,0002.65,0001.60
2024-03-01 00:10:00,SystemResetWarning,0823.6,5.00,000.00,025.6,024.7,000.0,033.9,027.4,05.5,0000.0,0006.83,0002.66,0001.60
2024-03-01 00:11:00,SystemResetWarning,0823.6,5.01,000.00,025.6,024.7,000.0,033.9,027.4,05.5,0000.0,0006.42,0002.62,0001.59
2024-03-01 00:12:00,SystemResetWarning,0823.6,5.00,000.00,025.6,024.7,000.0,033.9,027.3,05.6,0000.0,0006.14,0002.60,0001.61
2024-03-01 00:13:00,SystemResetWarning,0823.6,5.00,000.00,025.6,024.7,000.0,033.9,027.3,05.6,0000.0,0005.93,0002.56,0001.61
2024-03-01 00:14:00,SystemResetWarning,0823.6,5.00,000.00,025.6,024.7,000.0,033.9,027.4,05.6,0000.0,0005.90,0002.53,0001.60
2024-03-01 00:15:00,SystemResetWarning,0823.6,4.99,000.00,025.6,024.7,000.0,033.9,027.4,05.5,0000.0,0006.00,0002.57,0001.60
2024-03-01 00:16:00,SystemResetWarning,0823.6,5.01,000.00,025.6,024.7,000.0,033.9,027.3,05.6,0000.0,0005.82,0002.52,0001.59
2024-03-01 00:17:00,SystemResetWarning,0823.7,5.01,000.00,025.6,024.7,000.0,033.9,027.4,05.6,0000.0,0005.40,0002.45,0001.58
2024-03-01 00:18:00,SystemResetWarning,0823.7,5.00,000.00,025.6,024.7,000.0,033.9,027.4,05.7,0000.0,0005.40,0002.44,0001.56
2024-03-01 00:19:00,SystemResetWarning,0823.6,5.00,000.00,025.6,024.7,000.0,033.9,027.4,05.6,0000.0,0004.36,0002.47,0001.53
2024-03-01 00:20:00,SystemResetWarning,0823.6,4.98,000.00,025.6,024.7,000.0,033.9,027.3,05.5,0000.0,0004.48,0002.50,0001.53
2024-03-01 00:21:00,SystemResetWarning,0823.7,4.99,000.00,025.6,024.7,000.0,034.0,027.3,05.6,0000.0,0004.51,0002.50,0001.52
2024-03-01 00:22:00,SystemResetWarning,0823.6,4.99,000.00,025.6,024.7,000.0,034.0,027.3,05.7,0000.0,0004.63,0002.54,0001.52
2024-03-01 00:23:00,SystemResetWarning,0823.6,5.00,000.00,025.6,024.7,000.0,034.0,027.3,05.6,0000.0,0004.90,0002.58,0001.52
2024-03-01 00:24:00,SystemResetWarning,0823.6,5.00,000.00,025.6,024.7,000.0,034.0,027.4,05.5,0000.0,0006.21,0002.61,0001.52
2024-03-01 00:25:00,SystemResetWarning,0823.6,5.00,000.00,025.6,024.7,000.0,034.0,027.4,05.5,0000.0,0006.35,0002.65,0001.52
2024-03-01 00:26:00,SystemResetWarning,0823.6,5.01,000.00,025.6,024.7,000.0,034.0,027.4,05.6,0000.0,0006.34,0002.64,0001.52
2024-03-01 00:27:00,SystemResetWarning,0823.5,5.00,000.00,025.6,024.7,000.0,034.0,027.3,05.5,0000.0,0006.37,0002.65,0001.52
2024-03-01 00:28:00,SystemResetWarning,0823.5,4.99,000.00,025.6,024.7,000.0,034.0,027.4,05.5,0000.0,0006.75,0002.73,0001.53
2024-03-01 00:29:00,SystemResetWarning,0823.5,5.00,000.00,025.6,024.6,000.0,034.0,027.4,05.5,0000.0,0006.93,0002.71,0001.53
2024-03-01 00:30:00,SystemResetWarning,0823.5,5.01,000.00,025.6,024.6,000.0,034.0,027.4,05.5,0000.0,0006.94,0002.68,0001.53
2024-03-01 00:31:00,SystemResetWarning,0823.5,5.01,000.00,025.6,024.7,000.0,034.0,027.4,05.5,0000.0,0007.04,0002.73,0001.56
2024-03-01 00:32:00,SystemResetWarning,0823.6,5.00,000.00,025.6,024.7,000.0,034.0,027.4,05.5,0000.0,0007.23,0002.82,0001.57
2024-03-01 00:33:00,SystemResetWarning,0823.6,4.99,000.00,025.6,024.7,000.0,034.0,027.3,05.4,0000.0,0007.18,0002.77,0001.57
2024-03-01 00:34:00,SystemResetWarning,0823.6,4.99,000.00,025.6,024.7,000.0,034.0,027.4,05.4,0000.0,0007.08,0002.80,0001.57
2024-03-01 00:35:00,SystemResetWarning,0823.6,5.00,000.00,025.6,024.7,000.0,034.0,027.4,05.4,0000.0,0007.11,0002.84,0001.59
2024-03-01 00:36:00,SystemResetWarning,0823.6,5.03,000.00,025.6,024.7,000.0,034.0,027.4,05.5,0000.0,0006.84,0002.83,0001.60
2024-03-01 00:37:00,SystemResetWarning,0823.6,5.00,000.00,025.6,024.7,000.0,034.0,027.4,05.5,0000.0,0006.98,0002.90,0001.62
2024-03-01 00:38:00,SystemResetWarning,0823.6,4.99,000.00,025.6,024.7,000.0,034.0,027.4,05.6,0000.0,0007.26,0003.02,0001.65
2024-03-01 00:39:00,SystemResetWarning,0823.5,4.99,000.00,025.6,024.7,000.0,034.0,027.4,05.6,0000.0,0007.22,0003.05,0001.66
2024-03-01 00:40:00,SystemResetWarning,0823.5,5.01,000.00,025.6,024.7,000.0,034.0,027.4,05.5,0000.0,0008.10,0003.07,0001.67
2024-03-01 00:41:00,SystemResetWarning,0823.5,5.01,000.00,025.6,024.7,000.0,034.0,027.4,05.6,0000.0,0009.02,0003.13,0001.69
2024-03-01 00:42:00,SystemResetWarning,0823.5,5.00,000.00,025.6,024.7,000.0,034.0,027.4,05.6,0000.0,0009.07,0003.11,0001.69
2024-03-01 00:43:00,SystemResetWarning,0823.5,4.99,000.00,025.6,024.7,000.0,034.0,027.4,05.6,0000.0,0009.20,0003.09,0001.69
2024-03-01 00:44:00,SystemResetWarning,0823.5,4.99,000.00,025.6,024.7,000.0,034.0,027.4,05.6,0000.0,0009.63,0003.13,0001.71
2024-03-01 00:45:00,SystemResetWarning,0823.5,5.00,000.00,025.6,024.7,000.0,034.0,027.4,05.5,0000.0,0009.93,0003.13,0001.72
2024-03-01 00:46:00,SystemResetWarning,0823.6,5.00,000.00,025.6,024.7,000.0,034.0,027.4,05.5,0000.0,0009.57,0003.11,0001.73
2024-03-01 00:47:00,SystemResetWarning,0823.6,5.00,000.00,025.6,024.7,000.0,034.0,027.4,05.4,0000.0,0009.84,0003.14,0001.72
2024-03-01 00:48:00,SystemResetWarning,0823.6,5.00,000.00,025.6,024.7,000.0,034.0,027.4,05.5,0000.0,0010.55,0003.20,0001.73
2024-03-01 00:49:00,SystemResetWarning,0823.6,5.01,000.00,025.6,024.7,000.0,034.0,027.4,05.4,0000.0,0010.44,0003.16,0001.72
2024-03-01 00:50:00,SystemResetWarning,0823.6,5.00,000.00,025.6,024.7,000.0,034.0,027.4,05.4,0000.0,0010.42,0003.13,0001.71
2024-03-01 00:51:00,SystemResetWarning,0823.5,5.01,000.00,025.6,024.7,000.0,034.0,027.4,05.2,0000.0,0009.66,0003.16,0001.72
2024-03-01 00:52:00,SystemResetWarning,0823.6,5.00,000.00,025.6,024.7,000.0,034.0,027.4,05.4,0000.0,0008.71,0003.15,0001.73
2024-03-01 00:53:00,SystemResetWarning,0823.5,5.01,000.00,025.6,024.7,000.0,034.0,027.4,05.5,0000.0,0008.63,0003.11,0001.73
2024-03-01 00:54:00,SystemResetWarning,0823.6,5.00,000.00,025.6,024.7,000.0,034.0,027.4,05.5,0000.0,0008.37,0003.09,0001.74
2024-03-01 00:55:00,SystemResetWarning,0823.5,5.00,000.00,025.6,024.7,000.0,034.0,027.4,05.4,0000.0,0007.87,0003.03,0001.76
2024-03-01 00:56:00,SystemResetWarning,0823.5,4.99,000.00,025.6,024.7,000.0,034.0,027.4,05.0,0000.0,0007.67,0003.09,0001.77
2024-03-01 00:57:00,SystemResetWarning,0823.5,4.99,000.00,025.6,024.7,000.0,034.0,027.4,05.0,0000.0,0007.54,0003.11,0001.77
2024-03-01 00:58:00,SystemResetWarning,0823.5,5.00,000.00,025.6,024.7,000.0,034.0,027.4,05.3,0000.0,0007.17,0003.09,0001.78
2024-03-01 00:59:00,SystemResetWarning,0823.5,4.99,000.00,025.6,024.7,000.0,034.0,027.4,05.4,0000.0,0005.58,0002.98,0001.78
